TimeMDT,TemperatureF,Dew PointF,Humidity,Sea Level PressureIn,VisibilityMPH,Wind Direction,Wind SpeedMPH,Gust SpeedMPH,PrecipitationIn,Events,Conditions,WindDirDegrees,DateUTC
12:15 AM,72.5,63.9,74,29.85,10.0,Calm,Calm,-,N/A,,Clear,0,2013-06-12 06:15:00
12:35 AM,73.4,64.4,73,29.84,10.0,Calm,Calm,-,N/A,,Clear,0,2013-06-12 06:35:00
12:55 AM,71.1,63.7,77,29.85,10.0,NW,9.2,-,N/A,,Clear,310,2013-06-12 06:55:00
1:15 AM,69.1,64.0,84,29.85,10.0,Calm,Calm,-,N/A,,Clear,0,2013-06-12 07:15:00
1:35 AM,67.8,63.5,86,29.86,10.0,NW,4.6,-,N/A,,Clear,310,2013-06-12 07:35:00
1:55 AM,67.3,63.3,87,29.86,10.0,WNW,4.6,-,N/A,,Clear,300,2013-06-12 07:55:00
2:15 AM,67.1,63.9,89,29.90,10.0,NNW,19.6,26.5,N/A,,Clear,340,2013-06-12 08:15:00
2:35 AM,69.8,64.4,83,29.88,10.0,North,13.8,23.0,N/A,,Clear,10,2013-06-12 08:35:00
2:55 AM,69.1,64.0,84,29.88,10.0,North,11.5,-,N/A,,Clear,10,2013-06-12 08:55:00
3:15 AM,68.2,63.7,85,29.89,10.0,North,10.4,-,N/A,,Clear,350,2013-06-12 09:15:00
3:35 AM,68.0,63.1,84,29.90,10.0,North,11.5,-,N/A,,Clear,350,2013-06-12 09:35:00
3:55 AM,67.1,61.7,83,29.92,10.0,North,4.6,-,N/A,,Clear,350,2013-06-12 09:55:00
4:15 AM,65.7,58.1,77,29.94,10.0,Calm,Calm,-,N/A,,Clear,0,2013-06-12 10:15:00
4:35 AM,64.4,56.8,76,29.97,10.0,North,15.0,-,N/A,,Clear,360,2013-06-12 10:35:00
4:55 AM,63.9,56.5,77,29.98,10.0,Calm,Calm,-,N/A,,Clear,0,2013-06-12 10:55:00
5:15 AM,63.5,56.3,77,30.00,10.0,Calm,Calm,-,N/A,,Clear,0,2013-06-12 11:15:00
5:35 AM,62.2,55.9,80,29.99,10.0,Calm,Calm,-,N/A,,Clear,0,2013-06-12 11:35:00
5:55 AM,61.9,55.9,81,30.00,10.0,Calm,Calm,-,N/A,,Clear,0,2013-06-12 11:55:00
6:15 AM,63.3,56.3,78,30.00,10.0,Calm,Calm,-,N/A,,Clear,0,2013-06-12 12:15:00
6:35 AM,65.1,55.8,72,30.01,10.0,NNW,8.1,-,N/A,,Clear,340,2013-06-12 12:35:00
6:55 AM,65.8,56.3,71,30.03,10.0,NW,8.1,-,N/A,,Clear,320,2013-06-12 12:55:00
7:15 AM,67.5,56.1,67,30.04,10.0,NW,9.2,-,N/A,,Clear,320,2013-06-12 13:15:00
7:35 AM,68.7,55.9,64,30.04,10.0,NNW,8.1,-,N/A,,Clear,330,2013-06-12 13:35:00
7:55 AM,69.8,55.4,60,30.05,10.0,NW,9.2,-,N/A,,Clear,310,2013-06-12 13:55:00
8:15 AM,70.3,55.6,59,30.05,10.0,NW,9.2,-,N/A,,Clear,310,2013-06-12 14:15:00
8:35 AM,71.6,55.9,58,30.05,10.0,NW,9.2,-,N/A,,Clear,310,2013-06-12 14:35:00
8:55 AM,72.9,55.6,55,30.05,10.0,WNW,9.2,-,N/A,,Clear,300,2013-06-12 14:55:00
9:15 AM,73.9,55.9,53,30.05,10.0,NW,9.2,-,N/A,,Clear,320,2013-06-12 15:15:00
9:35 AM,74.7,56.1,52,30.04,10.0,NNW,10.4,-,N/A,,Clear,340,2013-06-12 15:35:00
9:55 AM,75.4,56.5,52,30.04,10.0,NNW,12.7,17.3,N/A,,Clear,340,2013-06-12 15:55:00
10:15 AM,76.8,56.3,49,30.05,10.0,NNW,11.5,-,N/A,,Clear,330,2013-06-12 16:15:00
10:35 AM,78.6,55.9,46,30.05,10.0,NW,13.8,-,N/A,,Clear,320,2013-06-12 16:35:00
10:55 AM,79.5,55.4,43,30.06,10.0,NNW,11.5,-,N/A,,Clear,330,2013-06-12 16:55:00
11:15 AM,80.8,53.8,39,30.05,10.0,NNW,12.7,18.4,N/A,,Clear,330,2013-06-12 17:15:00
11:35 AM,82.0,52.9,36,30.05,10.0,NNW,9.2,-,N/A,,Clear,340,2013-06-12 17:35:00
11:55 AM,82.9,52.3,35,30.06,10.0,NNW,10.4,-,N/A,,Clear,330,2013-06-12 17:55:00
12:15 PM,83.1,51.4,33,30.06,10.0,NW,10.4,16.1,N/A,,Clear,320,2013-06-12 18:15:00
12:35 PM,84.0,50.2,31,30.05,10.0,NNW,8.1,16.1,N/A,,Clear,330,2013-06-12 18:35:00
12:55 PM,84.6,50.0,30,30.05,10.0,North,5.8,-,N/A,,Clear,350,2013-06-12 18:55:00
1:15 PM,85.6,49.1,28,30.05,10.0,North,9.2,16.1,N/A,,Clear,360,2013-06-12 19:15:00
1:35 PM,86.0,48.6,27,30.05,10.0,NNW,8.1,-,N/A,,Clear,340,2013-06-12 19:35:00
1:55 PM,86.4,47.8,26,30.05,10.0,NNW,8.1,16.1,N/A,,Clear,330,2013-06-12 19:55:00
2:15 PM,86.5,48.7,27,30.05,10.0,NNW,16.1,-,N/A,,Clear,330,2013-06-12 20:15:00
2:35 PM,86.5,49.5,28,30.05,10.0,North,9.2,17.3,N/A,,Clear,360,2013-06-12 20:35:00
2:55 PM,87.1,49.5,27,30.05,10.0,NNE,10.4,18.4,N/A,,Clear,30,2013-06-12 20:55:00
3:15 PM,87.1,49.5,27,30.05,10.0,NE,11.5,23.0,N/A,,Clear,40,2013-06-12 21:15:00
3:35 PM,86.9,51.3,29,30.06,10.0,NE,13.8,19.6,N/A,,Clear,40,2013-06-12 21:35:00
3:55 PM,85.1,55.6,36,30.06,10.0,NE,19.6,26.5,N/A,,Clear,40,2013-06-12 21:55:00
4:15 PM,83.1,55.6,39,30.06,10.0,NE,18.4,26.5,N/A,,Clear,40,2013-06-12 22:15:00
4:35 PM,81.0,55.8,42,30.07,10.0,NE,19.6,23.0,N/A,,Clear,40,2013-06-12 22:35:00
4:55 PM,79.3,55.8,44,30.08,10.0,NE,18.4,23.0,N/A,,Clear,50,2013-06-12 22:55:00
5:15 PM,77.9,54.7,45,30.08,10.0,NNE,17.3,25.3,N/A,,Clear,30,2013-06-12 23:15:00
5:35 PM,76.1,54.3,47,30.08,10.0,NE,18.4,-,N/A,,Clear,40,2013-06-12 23:35:00
5:55 PM,74.3,54.1,49,30.09,10.0,NE,15.0,-,N/A,,Clear,40,2013-06-12 23:55:00
6:15 PM,73.0,53.1,49,30.10,10.0,NE,16.1,20.7,N/A,,Clear,40,2013-06-13 00:15:00
6:35 PM,73.6,53.4,49,30.10,10.0,NE,15.0,-,N/A,,Clear,40,2013-06-13 00:35:00
6:55 PM,71.6,52.7,51,30.10,10.0,NE,16.1,25.3,N/A,,Clear,50,2013-06-13 00:55:00
7:15 PM,71.2,52.3,51,30.12,10.0,East,11.5,-,N/A,,Clear,80,2013-06-13 01:15:00
7:35 PM,70.2,52.0,52,30.12,10.0,ENE,17.3,20.7,N/A,,Clear,70,2013-06-13 01:35:00
7:55 PM,68.9,52.2,55,30.11,10.0,ENE,15.0,-,N/A,,Clear,60,2013-06-13 01:55:00
8:15 PM,67.5,52.2,58,30.11,10.0,ENE,12.7,-,N/A,,Clear,70,2013-06-13 02:15:00
8:35 PM,66.7,51.8,59,30.12,10.0,ENE,12.7,-,N/A,,Clear,70,2013-06-13 02:35:00
8:55 PM,65.8,51.8,60,30.13,10.0,East,13.8,17.3,N/A,,Clear,80,2013-06-13 02:55:00
9:15 PM,65.3,51.3,60,30.13,10.0,ENE,16.1,-,N/A,,Clear,60,2013-06-13 03:15:00
9:35 PM,64.4,51.6,63,30.12,10.0,ENE,15.0,21.9,N/A,,Clear,70,2013-06-13 03:35:00
9:55 PM,63.7,51.1,64,30.13,10.0,ENE,13.8,21.9,N/A,,Clear,70,2013-06-13 03:55:00
10:15 PM,63.1,50.7,64,30.13,10.0,East,16.1,21.9,N/A,,Clear,80,2013-06-13 04:15:00
10:35 PM,62.8,50.5,64,30.12,10.0,ENE,13.8,-,N/A,,Clear,70,2013-06-13 04:35:00
10:55 PM,61.9,50.9,67,30.15,10.0,East,13.8,18.4,N/A,,Clear,80,2013-06-13 04:55:00
11:35 PM,60.3,51.1,72,30.14,10.0,East,12.7,18.4,N/A,,Clear,80,2013-06-13 05:35:00
11:55 PM,59.9,50.9,72,30.15,10.0,East,13.8,18.4,N/A,,Clear,80,2013-06-13 05:55:00